User: anonymous
Location: Unspecified
(0.0000°N, 0.0000°E)
Time: 02:14:55
(UTC+02:00)
Language:

CZ-2C R/B - Orbit

View from above orbital plane
View from above orbital plane
View from above satellite
View from above satellite

Ground track
Ground track

The orbit data is extracted from the following two-line orbital elements,

1 28480U 04046B   14106.11091448  .00000114  00000-0  58598-4 0  3142
2 28480 098.0818 266.9159 0143275 046.0449 084.7520 14.25279634489241
Epoch (UTC): 16 April 2014 02:39:43
Eccentricity: 0.0143275
inclination: 98.0818°
perigee height: 704 km
apogee height: 910 km
right ascension of ascending node: 266.9159°
argument of perigee: 46.0449°
revolutions per day: 14.25279634
mean anomaly at epoch: 84.7520°
orbit number at epoch: 48924

The dashed part of the orbit path shows where the satellite is in the earth's shadow,  

DLR